Content
SEND FEEDBACK

Daily
Averages
Monthly
Summary
United States of America

GRAND MEADOW, MINNESOTA


Home > North America > United States > Minnesota
Elevation: 1335 feet     Latitude: 43 42N     Longitude: 092 34W

WEATHER
 
SELECT A DAY
Number of Records: 219,511;   Date Range: 1/1/95 - 7/26/14
 
SHARE

PRINT THIS DATA

[ ← Previous Day ]
WEATHER ALMANAC - OCTOBER 5, 2013
[ Next Day → ]
[ °C ]   °F
Weather ElementAverageHighLow
Temperature57.5 °F63 °F (1:54 pm)44.1 °F (10:54 pm)
Dewpoint53.2 °F60.8 °F (12:18 am)39 °F (10:54 pm)
Humidity85.9 %100 % (12:50 am)63 % (1:54 pm)
Barometer29.83 in29.88 in (12:18 am)29.78 in (3:54 pm)
Wind Speed9.3 mph19.6 mph (12:30 am)
Wind Gust19.6 mph (12:54 am)
Weather ElementAverage
Visibility8.2 mi
Wind DirectionSSE (151.5 °)

Weather ElementTotal
Precipitation---
Heating Degree Days11.5 (Base 65)
Growing Degree Days3.6 (Base 50)
Averaged from 39 records on October 5, 2013
WEATHER CONDITIONS BREAKOUT
WIND DIRECTION BREAKOUT
WEATHER BY HOUR - OCTOBER 5, 2013
[ °C ]   °F
Local TimeTemperatureDewpointHumidityBarometerVisibilityWind DirectionWind SpeedGust SpeedPrecipitationEventsConditions
12:18 AM62.6 °F60.8 °F94 %29.88 in2.0 miNE (50°)8.1 mphRain-ThunderstormHeavy Thunderstorms and Rain
12:30 AM62.6 °F60.8 °F94 %29.86 in1.5 miNE (40°)19.6 mphRain-ThunderstormHeavy Thunderstorms and Rain
12:42 AM62.6 °F60.8 °F94 %29.85 in2.5 miEast (100°)16.1 mphRain-ThunderstormHeavy Thunderstorms and Rain
12:50 AM60.8 °F60.8 °F100 %29.85 in3.0 miEast (80°)15.0 mphRain-ThunderstormHeavy Thunderstorms and Rain
12:54 AM61.0 °F59.0 °F93 %29.85 in3.0 miEast (100°)8.1 mph19.6 mphRain-ThunderstormHeavy Thunderstorms and Rain
1:04 AM60.8 °F59.0 °F94 %29.85 in4.0 miEast (100°)8.1 mph16.1 mphRain-ThunderstormHeavy Thunderstorms and Rain
1:33 AM60.8 °F59.0 °F94 %29.85 in9.0 miEast (100°)10.4 mphRainRain
1:54 AM61.0 °F59.0 °F93 %29.84 in10.0 miESE (110°)13.8 mphOvercast
2:54 AM60.1 °F57.9 °F93 %29.81 in10.0 miESE (110°)13.8 mphScattered Clouds
3:14 AM60.8 °F57.2 °F88 %29.81 in10.0 miESE (120°)12.7 mphMostly Cloudy
3:31 AM60.8 °F57.2 °F88 %29.81 in10.0 miSE (130°)10.4 mphMostly Cloudy
3:54 AM60.1 °F57.9 °F93 %29.82 in10.0 miSE (140°)10.4 mphMostly Cloudy
4:39 AM60.8 °F57.2 °F88 %29.83 in10.0 miSE (140°)9.2 mphMostly Cloudy
4:54 AM60.1 °F57.9 °F93 %29.83 in10.0 miSSE (150°)9.2 mphMostly Cloudy
5:12 AM60.8 °F57.2 °F88 %29.82 in10.0 miSE (140°)6.9 mphScattered Clouds
5:54 AM60.1 °F57.9 °F93 %29.82 in10.0 miSE (130°)6.9 mphScattered Clouds
6:54 AM59.0 °F57.0 °F93 %29.82 in10.0 miSE (130°)8.1 mphScattered Clouds
7:14 AM59.0 °F57.2 °F94 %29.84 in10.0 miSSE (160°)8.1 mphMostly Cloudy
7:54 AM60.1 °F57.9 °F93 %29.81 in10.0 miSE (130°)8.1 mphOvercast
8:54 AM60.1 °F57.9 °F93 %29.85 in10.0 miSSW (210°)5.8 mphOvercast
9:21 AM57.2 °F55.4 °F94 %29.85 in2.0 miWest (270°)12.7 mphOvercast
9:28 AM55.4 °F53.6 °F94 %29.84 in2.0 miWest (270°)11.5 mphOvercast
9:33 AM55.4 °F51.8 °F88 %29.85 in6.0 miWest (270°)12.7 mphOvercast
9:54 AM54.0 °F51.1 °F90 %29.87 in10.0 miWest (260°)11.5 mphOvercast
10:54 AM55.9 °F52.0 °F87 %29.87 in10.0 miWSW (250°)9.2 mphOvercast
11:47 AM57.2 °F51.8 °F82 %29.84 in10.0 miSSW (210°)5.8 mphScattered Clouds
11:54 AM57.9 °F52.0 °F81 %29.85 in10.0 miVariable4.6 mphScattered Clouds
12:54 PM61.0 °F52.0 °F72 %29.83 in10.0 miSW (230°)10.4 mphScattered Clouds
1:54 PM63.0 °F50.0 °F63 %29.80 in10.0 miVariable6.9 mphScattered Clouds
2:54 PM60.1 °F48.0 °F64 %29.81 in4.0 miWSW (250°)10.4 mphHaze
3:54 PM55.0 °F44.1 °F67 %29.78 in10.0 miSW (230°)10.4 mphOvercast
4:54 PM55.0 °F45.0 °F69 %29.78 in10.0 miSSW (210°)6.9 mphOvercast
5:54 PM54.0 °F46.0 °F75 %29.79 in10.0 miWest (260°)3.5 mphOvercast
6:54 PM54.0 °F45.0 °F72 %29.78 in10.0 miCalmOvercast
7:54 PM52.0 °F46.0 °F80 %29.79 in10.0 miSSW (200°)4.6 mphOvercast
8:54 PM50.0 °F42.1 °F74 %29.80 in10.0 miWSW (240°)12.7 mphScattered Clouds
9:54 PM45.0 °F39.9 °F82 %29.81 in10.0 miNorthClear
10:54 PM44.1 °F39.0 °F82 %29.80 in10.0 miSSW (210°)5.8 mphClear
11:54 PM44.1 °F39.0 °F82 %29.78 in10.0 miSouth (180°)3.5 mphScattered Clouds
Hourly data recorded from KRST, located miles away from Grand Meadow, Minnesota







STORIES FROM OUR PARTNERS